TimeEDT,TemperatureF,Dew PointF,Humidity,Sea Level PressureIn,VisibilityMPH,Wind Direction,Wind SpeedMPH,Gust SpeedMPH,PrecipitationIn,Events,Conditions,WindDirDegrees,DateUTC
12:15 AM,41.7,39.0,90,29.87,10.0,Calm,Calm,-,N/A,,Clear,0,2012-10-02 04:15:00
12:34 AM,42.4,39.6,90,29.87,10.0,Calm,Calm,-,N/A,,Clear,0,2012-10-02 04:34:00
12:54 AM,42.3,39.4,90,29.87,10.0,Calm,Calm,-,N/A,,Clear,0,2012-10-02 04:54:00
1:15 AM,41.5,38.7,89,29.87,10.0,Calm,Calm,-,N/A,,Clear,0,2012-10-02 05:15:00
1:34 AM,41.2,38.5,90,29.86,10.0,Calm,Calm,-,N/A,,Clear,0,2012-10-02 05:34:00
1:54 AM,41.2,38.7,91,29.86,10.0,Calm,Calm,-,N/A,,Clear,0,2012-10-02 05:54:00
2:34 AM,41.9,39.4,91,29.86,10.0,NNW,3.5,-,N/A,,Clear,330,2012-10-02 06:34:00
2:54 AM,42.4,39.7,90,29.86,10.0,Calm,Calm,-,N/A,,Clear,0,2012-10-02 06:54:00
3:15 AM,42.4,39.6,90,29.86,10.0,Calm,Calm,-,N/A,,Clear,0,2012-10-02 07:15:00
3:34 AM,42.4,39.6,90,29.86,10.0,Calm,Calm,-,N/A,,Clear,0,2012-10-02 07:34:00
3:54 AM,42.4,39.4,89,29.86,10.0,Calm,Calm,-,N/A,,Clear,0,2012-10-02 07:54:00
4:14 AM,42.4,39.6,90,29.86,10.0,Calm,Calm,-,N/A,,Clear,0,2012-10-02 08:14:00
4:34 AM,41.2,38.5,90,29.86,10.0,NW,3.5,-,N/A,,Clear,320,2012-10-02 08:34:00
4:54 AM,42.4,39.7,90,29.87,10.0,Calm,Calm,-,N/A,,Clear,0,2012-10-02 08:54:00
5:14 AM,42.4,39.6,90,29.87,10.0,Calm,Calm,-,N/A,,Clear,0,2012-10-02 09:14:00
5:34 AM,42.4,39.4,89,29.87,10.0,Calm,Calm,-,N/A,,Clear,0,2012-10-02 09:34:00
5:54 AM,41.2,38.3,89,29.87,10.0,Calm,Calm,-,N/A,,Clear,0,2012-10-02 09:54:00
6:34 AM,38.7,36.1,91,29.89,5.0,NNW,4.6,-,N/A,,Clear,330,2012-10-02 10:34:00
6:54 AM,38.7,36.3,91,29.89,10.0,Calm,Calm,-,N/A,,Clear,0,2012-10-02 10:54:00
7:14 AM,38.7,36.5,92,29.90,10.0,Calm,Calm,-,N/A,,Clear,0,2012-10-02 11:14:00
7:34 AM,37.4,35.1,91,29.90,7.0,Calm,Calm,-,N/A,,Clear,0,2012-10-02 11:34:00
8:14 AM,36.1,33.8,91,29.91,10.0,NW,3.5,-,N/A,,Clear,320,2012-10-02 12:14:00
8:34 AM,38.7,36.5,92,29.92,10.0,Calm,Calm,-,N/A,,Clear,0,2012-10-02 12:34:00
8:55 AM,42.4,40.1,91,29.92,10.0,Calm,Calm,-,N/A,,Clear,0,2012-10-02 12:55:00
9:14 AM,44.6,41.9,90,29.92,10.0,NW,3.5,-,N/A,,Clear,320,2012-10-02 13:14:00
9:34 AM,51.4,46.4,83,29.91,10.0,Calm,Calm,-,N/A,,Clear,0,2012-10-02 13:34:00
9:55 AM,54.9,44.6,68,29.91,10.0,Calm,Calm,-,N/A,,Clear,0,2012-10-02 13:55:00
10:14 AM,58.8,44.6,59,29.91,10.0,NNE,3.5,-,N/A,,Clear,30,2012-10-02 14:14:00
10:34 AM,59.0,43.7,57,29.91,10.0,NE,3.5,-,N/A,,Clear,50,2012-10-02 14:34:00
10:55 AM,60.8,45.0,56,29.92,10.0,East,5.8,-,N/A,,Clear,90,2012-10-02 14:55:00
11:14 AM,61.7,41.5,48,29.92,10.0,East,5.8,-,N/A,,Clear,100,2012-10-02 15:14:00
11:34 AM,62.1,40.1,44,29.92,10.0,ESE,4.6,-,N/A,,Clear,120,2012-10-02 15:34:00
11:55 AM,62.8,40.5,44,29.92,10.0,ENE,4.6,-,N/A,,Clear,70,2012-10-02 15:55:00
12:14 PM,64.0,39.9,41,29.92,10.0,East,6.9,-,N/A,,Clear,100,2012-10-02 16:14:00
12:34 PM,64.8,35.8,34,29.92,10.0,ESE,3.5,-,N/A,,Clear,110,2012-10-02 16:34:00
12:54 PM,64.8,34.2,32,29.92,10.0,Calm,Calm,-,N/A,,Clear,0,2012-10-02 16:54:00
1:14 PM,66.6,31.5,27,29.92,10.0,NNW,3.5,-,N/A,,Clear,330,2012-10-02 17:14:00
1:35 PM,66.6,31.5,27,29.92,10.0,Calm,Calm,-,N/A,,Clear,0,2012-10-02 17:35:00
1:54 PM,66.7,31.1,26,29.91,10.0,ESE,3.5,-,N/A,,Clear,110,2012-10-02 17:54:00
2:14 PM,69.1,33.4,27,29.91,10.0,NNE,4.6,-,N/A,,Clear,20,2012-10-02 18:14:00
2:35 PM,69.1,32.5,26,29.90,10.0,Calm,Calm,-,N/A,,Clear,0,2012-10-02 18:35:00
2:54 PM,70.2,35.1,28,29.90,10.0,ESE,4.6,-,N/A,,Clear,110,2012-10-02 18:54:00
3:14 PM,69.3,34.7,28,29.90,10.0,ESE,3.5,-,N/A,,Clear,120,2012-10-02 19:14:00
3:34 PM,71.4,32.7,24,29.90,10.0,ENE,3.5,-,N/A,,Clear,60,2012-10-02 19:34:00
3:54 PM,71.6,33.3,24,29.89,10.0,East,5.8,-,N/A,,Clear,90,2012-10-02 19:54:00
4:14 PM,70.7,34.3,26,29.89,10.0,NE,5.8,-,N/A,,Clear,50,2012-10-02 20:14:00
4:34 PM,70.0,34.3,27,29.89,10.0,Calm,Calm,-,N/A,,Clear,0,2012-10-02 20:34:00
4:54 PM,71.6,36.1,27,29.89,10.0,NE,6.9,-,N/A,,Clear,40,2012-10-02 20:54:00
5:14 PM,71.6,36.1,27,29.89,10.0,NE,5.8,-,N/A,,Clear,50,2012-10-02 21:14:00
5:34 PM,69.1,35.2,29,29.89,10.0,ENE,5.8,-,N/A,,Clear,60,2012-10-02 21:34:00
6:14 PM,69.1,36.9,31,29.89,10.0,East,4.6,-,N/A,,Clear,80,2012-10-02 22:14:00
6:34 PM,66.2,38.3,36,29.90,10.0,East,4.6,-,N/A,,Clear,90,2012-10-02 22:34:00
7:14 PM,61.7,49.3,64,29.91,10.0,North,4.6,-,N/A,,Clear,360,2012-10-02 23:14:00
7:34 PM,59.4,49.6,70,29.91,10.0,North,3.5,-,N/A,,Clear,360,2012-10-02 23:34:00
7:54 PM,57.7,50.0,75,29.92,10.0,Calm,Calm,-,N/A,,Clear,0,2012-10-02 23:54:00
8:14 PM,56.5,50.2,79,29.92,10.0,North,3.5,-,N/A,,Clear,350,2012-10-03 00:14:00
8:34 PM,54.1,49.1,83,29.93,10.0,Calm,Calm,-,N/A,,Clear,0,2012-10-03 00:34:00
8:54 PM,55.9,51.3,84,29.94,10.0,Calm,Calm,-,N/A,,Clear,0,2012-10-03 00:54:00
9:14 PM,55.8,51.3,85,29.95,10.0,ENE,5.8,-,N/A,,Clear,60,2012-10-03 01:14:00
9:34 PM,54.0,49.6,85,29.96,10.0,NE,3.5,-,N/A,,Clear,40,2012-10-03 01:34:00
9:54 PM,52.3,48.4,86,29.96,10.0,Calm,Calm,-,N/A,,Clear,0,2012-10-03 01:54:00
10:14 PM,52.0,48.7,89,29.96,10.0,Calm,Calm,-,N/A,,Clear,0,2012-10-03 02:14:00
10:34 PM,51.4,48.6,90,29.97,10.0,Calm,Calm,-,N/A,,Clear,0,2012-10-03 02:34:00
10:54 PM,48.7,45.7,89,29.97,0.5,Calm,Calm,-,N/A,Fog,Fog,0,2012-10-03 02:54:00
11:15 PM,47.5,45.0,91,29.97,0.2,Calm,Calm,-,N/A,Fog,Fog,0,2012-10-03 03:15:00
11:34 PM,44.1,41.4,90,29.97,0.2,Calm,Calm,-,N/A,Fog,Fog,0,2012-10-03 03:34:00
11:54 PM,45.3,42.8,91,29.97,0.5,Calm,Calm,-,N/A,Fog,Fog,0,2012-10-03 03:54:00